STARLINK-32130 (60585 NORAD) Tracking and Keplerian Element Data

This shows tracking and keplerian element data for the satellite.

Feedback or suggestion? Click here.




ElementValue
Catalog60585
NameSTARLINK-32130
Epoch Orbit936
Epoch Day286.41670589
Epoch Year2024
RAAN172.0768
Inclination53.1591
Eccentricity0.0001824
Argument of Perigee120.5873
Mean Anonmoly239.5312
Mean Motion15.39613686
Decay Rate-2.06E-06
L11 60585U 24150C 24286.41670589 -.00000206 00000+0 48359-5 0 9990
L22 60585 53.1591 172.0768 0001824 120.5873 239.5312 15.39613686 9363



Live tracking and technical data element details for STARLINK-32130 (NORAD 60585). STARLINK-32130 can be tracked NOW for your location showing map with azimuth and elevation plus other details from your city location.







IsCatalogInMostPopularTable: catalog: 60585, numindb: 8
Update: records affected: 1



GetName: 60585 STARLINK-32130

Hit Count: updated at: Wed, 04 Dec 2024 17:39:19 GMT